Flag for Brazil Weather past 2 weeks in Tabatinga, Amazonas, Brazil

Now
73 °F

Scattered showers. Low clouds.


Feels Like: 70 °F
Forecast: 73 / 84 °F
Wind: No wind

Location: Leticia / Vasquez Cobo

Current Time: Aug 28, 2014 at 4:55:36 AM

Latest Report: Aug 28, 2014 at 4:00 AM


Visibility: 4 mi

Pressure: 29.92 "Hg

Humidity: 94%

Dew point: 72 °F

Location of TabatingaLocation

Historic Weather in Tabatinga — Graph

°F

Tabatinga temperature yesterday

Maximum temperature yesterday: 88 °F (at 4:00 PM)
Minimum temperature yesterday: 72 °F (at 4:00 AM)
Average temperature yesterday: 78 °F

Past Weeks' High & Low Weather Summary

 TemperatureHumidityPressure
High93 °F (Aug 25, 3:00 PM)100% (Aug 13, 9:00 AM)30.08 "Hg (Aug 13, 9:00 AM)
Low70 °F (Aug 16, 5:00 AM)24% (Aug 22, 12:00 AM)29.75 "Hg (Aug 25, 4:00 PM)
Average80 °F87%29.92 "Hg
* Reported Aug 13 6:00 AM — Aug 28 1:00 AM, Tabatinga, Weather by CustomWeather, © 2014

Note: Actual official high and low records may vary slightly from our data, if they occured in-between our weather recording intervals... More about our weather records

Advertising

Tabatinga weather history for previous 24 hours

 ConditionsComfort  
Time TempWeatherWind HumidityBarometerVisibility
1:00 AM
Aug 28
73 °FRain. Low clouds.No wind100%29.94 "Hg4 mi
12:00 AM75 °FScattered showers. Overcast.No wind94%29.92 "Hg5 mi
11:00 PM
Aug 27
75 °FPassing clouds.No wind94%29.94 "HgN/A
10:00 PM75 °FPassing clouds.No wind94%29.93 "HgN/A
9:00 PM75 °FScattered showers. Partly cloudy.No wind94%29.94 "Hg5 mi
8:00 PM75 °FRain. Partly cloudy.5 mph94%29.93 "Hg4 mi
7:00 PM77 °FPartly cloudy.2 mph94%29.89 "HgN/A
6:00 PM79 °FPassing clouds.No wind94%29.87 "HgN/A
5:00 PM81 °FThunderstorms. Broken clouds.2 mph89%29.87 "Hg5 mi
4:00 PM88 °FPartly sunny.3 mph70%29.86 "HgN/A
3:00 PM86 °FBroken clouds.3 mph70%29.88 "HgN/A
2:00 PM84 °FBroken clouds.3 mph74%29.89 "HgN/A
1:00 PM86 °FPartly sunny.5 mph75%29.93 "HgN/A
12:00 PM82 °FPartly sunny.No wind79%29.96 "HgN/A
11:00 AM81 °FPartly sunny.No wind84%29.97 "HgN/A
10:00 AM79 °FPartly sunny.No wind89%29.99 "HgN/A
9:00 AM77 °FPartly sunny.2 mph89%30.00 "HgN/A
8:00 AM75 °FBroken clouds.2 mph94%29.98 "HgN/A
7:00 AM73 °FPartly sunny.No wind94%29.96 "HgN/A
6:00 AM75 °FPartly sunny.No wind94%29.91 "HgN/A
4:00 AM72 °FLow clouds.No wind100%29.89 "HgN/A
Weather by CustomWeather, © 2014

See weather overviewHow to use our weather pages